{"data":{"norad_id":62434,"epoch":"2026-05-24T22:04:15.896352Z","epoch_age_seconds":92523,"freshness":"FRESH","line1":"1 62434U 24251C   26144.91962843  .00006992  00000+0  24802-3 0  9996","line2":"2 62434  53.1594 340.9374 0000912  79.0992 281.0111 15.30191657 79622","mean_motion":15.30191657,"eccentricity":9.12e-5,"inclination_deg":53.1594,"raan_deg":340.9374,"arg_perigee_deg":79.0992,"mean_anomaly_deg":281.0111,"bstar":0.00024802,"rev_number":7962,"period_min":94.105858793086,"perigee_km":474.61495224607,"apogee_km":475.86500820727,"semimajor_km":6853.3769802267,"source":"CELESTRAK","updated_at":"2026-05-25T13:38:19.657088Z"}}